Aberdeen / Amory, MS

9:58 PM CDT on July 20, 2017 (GMT -0500)
Aberdeen / Amory

Weather History for KM40 - June, 2013

Change the Weather History Date:

Wednesday, June 26, 2013

  Actual Average (KCBM) Record (KCBM)
Temperature  
Mean Temperature 84 °F -  
Max Temperature 96 °F 87 °F 96 °F (1998)
Min Temperature 71 °F 68 °F 59 °F (2017)
Cooling Degree Days 18    
Growing Degree Days 34 (Base 50)    
Moisture  
Dew Point 66 °F    
Average Humidity 55    
Maximum Humidity 58    
Minimum Humidity 53    
Precipitation  
Precipitation 0.00 in - - ()
Sea Level Pressure  
Sea Level Pressure 30.00 in    
Wind  
Wind Speed 3 mph (SSW)    
Max Wind Speed 10 mph    
Max Gust Speed -    
Visibility 8 miles    
Events      
Averages and records for this station are not official NWS values.
T = Trace of Precipitation, MM = Missing Value Source: NWS Daily Summary

Daily Weather History Graph

Daily Weather History Graph

Search for Another Location

Airport or City:

Trip Planner

Search our weather history database for the weather conditions in past years. The results will help you decide how hot, cold, wet, or windy it might be!

Date:

Astronomy

Jun. 26, 2013 Rise Set
Actual Time 5:44 AM CDT 8:08 PM CDT
Civil Twilight 5:15 AM CDT 8:37 PM CDT
Nautical Twilight 4:39 AM CDT 9:13 PM CDT
Astronomical Twilight 4:00 AM CDT 9:52 PM CDT
Moon 10:44 PM CDT (6/26) 9:25 AM CDT (6/26)
Length of Visible Light 15h 22m
Length of Day
14h 23m
Waning Gibbous, 85% of the Moon is Illuminated
Jun 26
Waning Gibbous
Jun 29
Last Quarter
Jul 8
New
Jul 15
First Quarter
Jul 22
Full

Hourly Weather History & Observations

Time (CDT) Temp. Heat Index Dew Point Humidity Pressure Visibility Wind Dir Wind Speed Gust Speed Precip Events Conditions
12:15 AM 77.0 °F - 60.8 °F 57% 30.01 in 9.0 mi Calm Calm - N/A   Clear
12:35 AM 77.0 °F - 60.8 °F 57% 30.00 in 8.0 mi Calm Calm - N/A   Clear
12:55 AM 77.0 °F - 60.8 °F 57% 30.00 in 9.0 mi SSE 3.5 mph - N/A   Clear
1:15 AM 77.0 °F - 60.8 °F 57% 30.00 in 9.0 mi Calm Calm - N/A   Clear
1:35 AM 75.2 °F - 59.0 °F 57% 30.00 in 8.0 mi Calm Calm - N/A   Clear
1:55 AM 75.2 °F - 59.0 °F 57% 29.99 in 9.0 mi Calm Calm - N/A   Clear
2:15 AM 75.2 °F - 57.2 °F 53% 29.99 in 8.0 mi Calm Calm - N/A   Clear
2:35 AM 73.4 °F - 55.4 °F 53% 30.00 in 7.0 mi Calm Calm - N/A   Clear
2:55 AM 73.4 °F - 55.4 °F 53% 30.00 in 5.0 mi Calm Calm - N/A   Haze
3:15 AM 73.4 °F - 55.4 °F 53% 30.01 in 5.0 mi Calm Calm - N/A   Haze
3:35 AM 73.4 °F - 55.4 °F 53% 30.01 in 7.0 mi Calm Calm - N/A   Clear
3:55 AM 73.4 °F - 55.4 °F 53% 30.01 in 7.0 mi Calm Calm - N/A   Unknown
4:15 AM 71.6 °F - 55.4 °F 57% 30.02 in 5.0 mi Calm Calm - N/A   Haze
4:35 AM 73.4 °F - 55.4 °F 53% 30.02 in 6.0 mi Calm Calm - N/A   Haze
4:55 AM 73.4 °F - 55.4 °F 53% 30.03 in 7.0 mi Calm Calm - N/A   Clear
5:15 AM 71.6 °F - 55.4 °F 57% 30.03 in 3.0 mi Calm Calm - N/A   Haze
5:35 AM 71.6 °F - 53.6 °F 53% 30.02 in 3.0 mi Calm Calm - N/A   Haze
5:55 AM 71.6 °F - 55.4 °F 57% 30.03 in 5.0 mi Calm Calm - N/A   Haze
6:15 AM 71.6 °F - 55.4 °F 57% 30.04 in 3.0 mi Calm Calm - N/A   Haze
6:35 AM 73.4 °F - 55.4 °F 53% 30.05 in 4.0 mi Calm Calm - N/A   Haze
6:55 AM 73.4 °F - 57.2 °F 57% 30.06 in 5.0 mi Calm Calm - N/A   Haze
7:15 AM 75.2 °F - 57.2 °F 53% 30.06 in 5.0 mi South 3.5 mph - N/A   Haze
7:35 AM 77.0 °F - 60.8 °F 57% 30.06 in 6.0 mi South 5.8 mph - N/A   Haze
7:55 AM 78.8 °F - 62.6 °F 57% 30.06 in 7.0 mi South 8.1 mph - N/A   Clear
8:15 AM 80.6 °F 82.3 °F 64.4 °F 58% 30.07 in 7.0 mi South 6.9 mph - N/A   Clear
8:35 AM 82.4 °F 83.9 °F 64.4 °F 54% 30.07 in 8.0 mi SW 5.8 mph - N/A   Clear
8:55 AM 84.2 °F 86.6 °F 66.2 °F 55% 30.07 in 8.0 mi SW 6.9 mph - N/A   Clear
9:15 AM 86.0 °F 89.4 °F 68.0 °F 55% 30.06 in 8.0 mi WSW 6.9 mph - N/A   Clear
9:55 AM 87.8 °F 92.6 °F 69.8 °F 55% 30.05 in 7.0 mi SW 8.1 mph - N/A   Partly Cloudy
10:15 AM 89.6 °F 96.2 °F 71.6 °F 55% 30.05 in 8.0 mi SSW 6.9 mph - N/A   Clear
10:35 AM 91.4 °F 100.1 °F 73.4 °F 55% 30.05 in 8.0 mi SW 8.1 mph - N/A   Partly Cloudy
10:55 AM 91.4 °F 100.1 °F 73.4 °F 55% 30.05 in 9.0 mi WSW 8.1 mph - N/A   Clear
11:15 AM 91.4 °F 100.1 °F 73.4 °F 55% 30.04 in 8.0 mi SW 8.1 mph - N/A   Partly Cloudy
11:35 AM 93.2 °F 105.0 °F 75.2 °F 56% 30.04 in 9.0 mi SW 6.9 mph - N/A   Partly Cloudy
11:55 AM 93.2 °F 105.0 °F 75.2 °F 56% 30.04 in 8.0 mi SW 6.9 mph - N/A   Partly Cloudy
12:15 PM 95.0 °F 107.4 °F 75.2 °F 53% 30.04 in 8.0 mi SSW 9.2 mph - N/A   Partly Cloudy
12:35 PM 93.2 °F 105.0 °F 75.2 °F 56% 30.04 in 8.0 mi SW 9.2 mph - N/A   Partly Cloudy
12:55 PM 95.0 °F 107.4 °F 75.2 °F 53% 30.03 in 8.0 mi SW 8.1 mph - N/A   Clear
1:15 PM 95.0 °F 109.7 °F 77.0 °F 56% 30.02 in 8.0 mi WSW 9.2 mph - N/A   Clear
1:35 PM 96.8 °F 112.2 °F 77.0 °F 53% 30.01 in 9.0 mi SW 8.1 mph - N/A   Partly Cloudy
1:55 PM 95.0 °F 109.7 °F 77.0 °F 56% 29.99 in 9.0 mi SSW 10.4 mph - N/A   Clear
2:15 PM 95.0 °F 107.4 °F 75.2 °F 53% 29.99 in 8.0 mi SW 8.1 mph - N/A   Partly Cloudy
2:35 PM 93.2 °F 105.0 °F 75.2 °F 56% 29.98 in 9.0 mi SW 8.1 mph - N/A   Scattered Clouds
2:55 PM 95.0 °F 109.7 °F 77.0 °F 56% 29.97 in 8.0 mi SW 10.4 mph - N/A   Partly Cloudy
3:15 PM 96.8 °F 114.8 °F 78.8 °F 56% 29.97 in 9.0 mi SW 9.2 mph - N/A   Clear
3:35 PM 96.8 °F 114.8 °F 78.8 °F 56% 29.97 in 8.0 mi WSW 9.2 mph - N/A   Scattered Clouds
3:55 PM 95.0 °F 109.7 °F 77.0 °F 56% 29.97 in 8.0 mi SW 9.2 mph - N/A   Scattered Clouds
4:15 PM 95.0 °F 109.7 °F 77.0 °F 56% 29.96 in 9.0 mi SW 9.2 mph - N/A   Clear
4:35 PM 95.0 °F 109.7 °F 77.0 °F 56% 29.96 in 7.0 mi SSW 6.9 mph - N/A   Clear
4:55 PM 96.8 °F 114.8 °F 78.8 °F 56% 29.95 in 8.0 mi SW 10.4 mph - N/A   Partly Cloudy
5:15 PM 95.0 °F 107.4 °F 75.2 °F 53% 29.94 in 9.0 mi SSW 10.4 mph - N/A   Partly Cloudy
5:35 PM 93.2 °F 105.0 °F 75.2 °F 56% 29.94 in 9.0 mi SW 6.9 mph - N/A   Clear
5:55 PM 91.4 °F 100.1 °F 73.4 °F 55% 29.93 in 7.0 mi SSW 8.1 mph - N/A   Clear
6:15 PM 89.6 °F 96.2 °F 71.6 °F 55% 29.93 in 9.0 mi South 5.8 mph - N/A   Clear
6:35 PM 89.6 °F 96.2 °F 71.6 °F 55% 29.93 in 9.0 mi SSW 6.9 mph - N/A   Clear
6:55 PM 89.6 °F 96.2 °F 71.6 °F 55% 29.93 in 8.0 mi SSW 5.8 mph - N/A   Clear
7:15 PM 89.6 °F 96.2 °F 71.6 °F 55% 29.93 in 9.0 mi SSW 4.6 mph - N/A   Clear
7:35 PM 87.8 °F 92.6 °F 69.8 °F 55% 29.94 in 8.0 mi Calm Calm - N/A   Clear
7:55 PM 84.2 °F 87.3 °F 68.0 °F 58% 29.93 in 8.0 mi Calm Calm - N/A   Clear
8:15 PM 84.2 °F 86.6 °F 66.2 °F 55% 29.94 in 9.0 mi Calm Calm - N/A   Clear
8:35 PM 82.4 °F 83.9 °F 64.4 °F 54% 29.93 in 10.0 mi Calm Calm - N/A   Clear
8:55 PM 82.4 °F 83.9 °F 64.4 °F 54% 29.92 in 10.0 mi South 5.8 mph - N/A   Clear
9:15 PM 82.4 °F 83.9 °F 64.4 °F 54% 29.93 in 10.0 mi South 4.6 mph - N/A   Clear
9:35 PM 82.4 °F 83.9 °F 64.4 °F 54% 29.93 in 10.0 mi South 5.8 mph - N/A   Clear
9:55 PM 80.6 °F 82.3 °F 64.4 °F 58% 29.94 in 10.0 mi Calm Calm - N/A   Clear
10:15 PM 80.6 °F 81.8 °F 62.6 °F 54% 29.94 in 9.0 mi South 3.5 mph - N/A   Clear
10:35 PM 78.8 °F - 62.6 °F 57% 29.95 in 10.0 mi Calm Calm - N/A   Light Drizzle
10:55 PM 80.6 °F 81.8 °F 62.6 °F 54% 29.95 in 10.0 mi South 4.6 mph - N/A   Clear
11:15 PM 78.8 °F - 62.6 °F 57% 29.95 in 10.0 mi South 5.8 mph - N/A   Clear
11:35 PM 80.6 °F 81.8 °F 62.6 °F 54% 29.96 in 10.0 mi Calm Calm - N/A   Clear
11:55 PM 78.8 °F - 62.6 °F 57% 29.97 in 9.0 mi South 3.5 mph - N/A   Clear